Volver al catálogo

FENGYUN 1C DEB

ActivoSSO
NORAD 30356·DEBRIS·🇨🇳 China

Lanzado May 10, 1999 desde Taiyuan Satellite Launch Center

Loading…

Próximos Pases (próximas 24 horas)

TLE

ActualizadoSource: Space-Track

Época: Sep 13, 2026, 23:16 UTC

1 30356U 99025ABT 26256.96985354  .00000656  00000-0  36568-3 0  9990
2 30356  98.6973 249.3411 0051642 223.2001 155.6112 14.13672743  8921

Sigue FENGYUN 1C DEB en tiempo real con AllMySat

Download on the App Store